Onweer radar Meer informatie blitzortung!


Regen radar Meer informatie rain snow radar


Bezoek onze andere website:

Template documentation
and downloads

And another site



15 daagse weersverwachting Sunderland (GB)

  • Overzicht
  • Per uur
  • 15 dagen
  • Extra
  • Vergelijk
  • Kaarten
  • Dagkaart
  • Meer »
  • Info
  • Statistieken
  • Directe link
    Temp 6h Neerslag Wind  
 04:28     21:46    Daglengte: 17:18 Vandaag
19:00
16°
 
6
 04:28     21:46    Daglengte: 17:18 Morgen
01:00
13°
 
8
07:00
13°
 
6
13:00
17°
 
7
19:00
17°
 
7
 04:28     21:47    Daglengte: 17:19 Dinsdag 18 Jun
01:00
12°
 
5
07:00
12°
 
4
13:00
18°
 
5
19:00
17°
 
3
 04:28     21:47    Daglengte: 17:19 Woensdag 19 Jun
01:00
13°
 
2
07:00
12°
4.8 mm
2
13:00
13°
16.4 mm
1
Locatie info
Region: England
Latitude: 54.9024°N
Longitude: -1.3865°E
36 masl
Postcode: SR1 3
Temp/Neerslag /Baro Onweer/Dauwpunt
    Temp Baro 1h Neerslag Dauwpunt Wind UV Bewolking  
 04:28     21:46    Daglengte: 17:18 Vandaag
19:00
16°
1010.8 hPa
71%
10.1°
6
Windvlaag: 4.2 m/s
13%
20:00
15°
1010.9 hPa
14%
9.0°
5
Windvlaag: 3.9 m/s
54%
21:00
14°
1010.9 hPa
70%
9.1°
3
Windvlaag: 2.9 m/s
63%
22:00
13°
1011.0 hPa
80%
9.4°
4
Windvlaag: 3.2 m/s
70%
23:00
13°
1010.6 hPa
43%
9.8°
6
Windvlaag: 5.8 m/s
68%
 04:28     21:46    Daglengte: 17:18 Morgen
00:00
13°
1010.1 hPa
22%
10.6°
7
Windvlaag: 6.2 m/s
80%
01:00
13°
1009.9 hPa
27%
10.7°
8
Windvlaag: 6.4 m/s
68%
02:00
13°
1009.9 hPa
18%
10.4°
8
Windvlaag: 6.6 m/s
55%
03:00
13°
1009.9 hPa
14%
10.4°
7
Windvlaag: 6.6 m/s
57%
04:00
13°
1010.1 hPa
20%
10.1°
6
Windvlaag: 6.2 m/s
47%
05:00
13°
1010.4 hPa
16%
9.8°
6
Windvlaag: 5.5 m/s
41%
06:00
13°
1010.7 hPa
17%
9.5°
6
Windvlaag: 4.3 m/s
44%
07:00
13°
1010.9 hPa
15%
9.5°
6
Windvlaag: 4.4 m/s
48%
08:00
14°
1011.1 hPa
20%
9.2°
6
Windvlaag: 4.7 m/s
43%
09:00
15°
1011.2 hPa
14%
8.8°
7
Windvlaag: 4.8 m/s
60%
10:00
16°
1011.4 hPa
18%
8.8°
7
Windvlaag: 5 m/s
76%
11:00
16°
1011.6 hPa
15%
9.0°
7
Windvlaag: 5.1 m/s
78%
12:00
17°
1011.7 hPa
14%
9.1°
7
Windvlaag: 5 m/s
76%
13:00
17°
1011.4 hPa
19%
8.8°
7
Windvlaag: 5.1 m/s
48%
14:00
18°
1011.5 hPa
16%
8.8°
7
Windvlaag: 5.1 m/s
56%
15:00
18°
1011.4 hPa
14%
8.8°
7
Windvlaag: 5 m/s
33%
16:00
18°
1011.5 hPa
14%
8.9°
8
Windvlaag: 4.6 m/s
42%
17:00
18°
1011.5 hPa
14%
8.8°
7
Windvlaag: 4.6 m/s
57%
18:00
17°
1011.6 hPa
14%
8.7°
7
Windvlaag: 4.4 m/s
63%
19:00
17°
1011.6 hPa
14%
8.7°
7
Windvlaag: 4.3 m/s
57%
20:00
16°
1011.9 hPa
14%
8.3°
6
Windvlaag: 4.1 m/s
31%
21:00
15°
1012.2 hPa
14%
8.4°
6
Windvlaag: 4.1 m/s
20%
22:00
14°
1012.5 hPa
14%
8.4°
5
Windvlaag: 4 m/s
19%
23:00
13°
1012.7 hPa
14%
8.6°
5
Windvlaag: 3.9 m/s
17%
 04:28     21:47    Daglengte: 17:19 Dinsdag 18 Jun
00:00
13°
1012.8 hPa
14%
8.8°
5
Windvlaag: 3.7 m/s
13%
01:00
12°
1012.7 hPa
14%
9.2°
5
Windvlaag: 4 m/s
12%
02:00
12°
1012.6 hPa
14%
9.3°
4
Windvlaag: 3.8 m/s
26%
03:00
12°
1012.4 hPa
14%
9.2°
4
Windvlaag: 3.8 m/s
23%
04:00
11°
1012.4 hPa
14%
9.2°
4
Windvlaag: 3.9 m/s
14%
05:00
11°
1012.3 hPa
14%
9.1°
4
Windvlaag: 2.5 m/s
13%
06:00
11°
1012.3 hPa
14%
9.0°
4
Windvlaag: 3.3 m/s
34%
07:00
12°
1012.4 hPa
14%
9.3°
4
Windvlaag: 3.3 m/s
41%
08:00
13°
1012.4 hPa
14%
9.7°
5
Windvlaag: 3.7 m/s
45%
09:00
15°
1012.4 hPa
14%
10.2°
5
Windvlaag: 3.7 m/s
35%
10:00
16°
1012.3 hPa
14%
9.7°
5
Windvlaag: 3.5 m/s
31%
11:00
17°
1012.2 hPa
14%
9.4°
5
Windvlaag: 3.8 m/s
32%
12:00
17°
1012.0 hPa
14%
9.0°
5
Windvlaag: 3.9 m/s
30%
13:00
18°
1011.9 hPa
14%
8.5°
5
Windvlaag: 3.8 m/s
31%
14:00
18°
1011.7 hPa
14%
8.5°
5
Windvlaag: 3.7 m/s
38%
15:00
18°
1011.6 hPa
14%
8.3°
5
Windvlaag: 3.4 m/s
67%
16:00
18°
1011.4 hPa
21%
8.5°
5
Windvlaag: 3.3 m/s
92%
17:00
18°
1011.2 hPa
21%
9.3°
5
Windvlaag: 3.2 m/s
95%
18:00
17°
1011.0 hPa
21%
9.7°
4
Windvlaag: 3.3 m/s
90%
19:00
17°
1010.9 hPa
21%
9.9°
3
Windvlaag: 3 m/s
82%
20:00
16°
1010.9 hPa
21%
10.1°
3
Windvlaag: 2.5 m/s
63%
21:00
15°
1010.9 hPa
26%
9.9°
2
Windvlaag: 1.9 m/s
79%
22:00
14°
1011.0 hPa
41%
9.5°
2
Windvlaag: 1.1 m/s
78%
23:00
13°
1010.9 hPa
100%
9.2°
2
Windvlaag: 1.4 m/s
87%
 04:28     21:47    Daglengte: 17:19 Woensdag 19 Jun
00:00
13°
1010.7 hPa
100%
9.1°
2
Windvlaag: 1.6 m/s
97%
01:00
13°
1010.4 hPa
100%
9.3°
2
Windvlaag: 1.4 m/s
100%
02:00
12°
1010.0 hPa
100%
9.6°
1
Windvlaag: 1.2 m/s
96%
03:00
12°
1009.7 hPa
100%
9.7°
1
Windvlaag: 1 m/s
97%
04:00
12°
1009.1 hPa 0.7 mm
100%
9.4°
2
Windvlaag: 1.1 m/s
98%
05:00
12°
1008.7 hPa 0.9 mm
100%
9.4°
2
Windvlaag: 1 m/s
100%
06:00
12°
1008.4 hPa 1.8 mm
100%
9.5°
2
Windvlaag: 0.6 m/s
100%
07:00
12°
1008.2 hPa 1.4 mm
100%
9.9°
2
Windvlaag: 0.6 m/s
100%
08:00
12°
1008.2 hPa 1.8 mm
100%
9.9°
2
Windvlaag: 1.2 m/s
98%
09:00
12°
1008.0 hPa 2.2 mm
100%
9.8°
2
Windvlaag: 0.3 m/s
97%
10:00
12°
1007.6 hPa 2.6 mm
100%
9.5°
2
Windvlaag: -0.2 m/s
95%
11:00
12°
1007.2 hPa 2.9 mm
100%
9.3°
2
Windvlaag: -0.2 m/s
94%
12:00
12°
1007.0 hPa 3.2 mm
100%
9.0°
1
Windvlaag: -0.1 m/s
92%
13:00
13°
1006.6 hPa 3.7 mm
100%
8.8°
1
Windvlaag: 0.2 m/s
91%
14:00
13°
1005.9 hPa 5.9 mm
100%
9.5°
2
Windvlaag: 8.1 m/s
74%
15:00
14°
1005.6 hPa 6.0 mm
100%
9.7°
2
Windvlaag: 8 m/s
75%
16:00
14°
1005.4 hPa 6.2 mm
100%
9.9°
3
Windvlaag: 8.6 m/s
68%
17:00
14°
1005.1 hPa 6.2 mm
100%
10.0°
3
Windvlaag: 6.4 m/s
65%
18:00
14°
1005.0 hPa 6.2 mm
100%
10.2°
2
Windvlaag: 5.2 m/s
50%
Temp/Neerslag /Baro Onweer/Dauwpunt
    Temp Baro Neerslag Dauwpunt Wind Bewolking  
 04:28     21:46    Daglengte: 17:18 Vandaag
19:00
16°
1010.8 hPa   10.1°
6
13%
22:00
13°
1011.0 hPa   9.4°
4
70%
 04:28     21:46    Daglengte: 17:18 Morgen
01:00
13°
1009.9 hPa   10.7°
8
68%
04:00
13°
1010.1 hPa   10.1°
6
47%
07:00
13°
1010.9 hPa   9.5°
6
48%
10:00
16°
1011.4 hPa   8.8°
7
76%
13:00
17°
1011.4 hPa   8.8°
7
48%
16:00
18°
1011.5 hPa   8.9°
8
42%
19:00
17°
1011.6 hPa   8.7°
7
57%
22:00
14°
1012.5 hPa   8.4°
5
19%
 04:28     21:47    Daglengte: 17:19 Dinsdag 18 Jun
01:00
12°
1012.7 hPa   9.2°
5
12%
04:00
11°
1012.4 hPa   9.2°
4
14%
07:00
12°
1012.4 hPa   9.3°
4
41%
10:00
16°
1012.3 hPa   9.7°
5
31%
13:00
18°
1011.9 hPa   8.5°
5
31%
16:00
18°
1011.4 hPa   8.5°
5
92%
19:00
17°
1010.9 hPa   9.9°
3
82%
22:00
14°
1011.0 hPa   9.5°
2
78%
 04:28     21:47    Daglengte: 17:19 Woensdag 19 Jun
01:00
13°
1010.4 hPa   9.3°
2
100%
04:00
12°
1009.1 hPa 0.7 mm 9.4°
2
98%
07:00
12°
1008.2 hPa 4.1 mm 9.9°
2
100%
10:00
12°
1007.6 hPa 6.7 mm 9.5°
2
95%
13:00
13°
1006.6 hPa 9.7 mm 8.8°
1
91%
16:00
14°
1005.4 hPa 18.1 mm 9.9°
3
68%
19:00
14°
1004.8 hPa 18.5 mm 10.4°
2
45%
22:00
13°
1006.6 hPa 19.5 mm 9.5°
3
49%
 04:29     21:47    Daglengte: 17:18 Donderdag 20 Jun
01:00
11°
1006.7 hPa 19.5 mm 8.5°
4
54%
04:00
12°
1006.6 hPa 19.5 mm 9.0°
4
72%
07:00
12°
1006.5 hPa 19.5 mm 9.4°
4
90%
10:00
14°
1006.8 hPa 19.6 mm 8.7°
5
65%
13:00
15°
1007.2 hPa 20.0 mm 7.3°
6
40%
16:00
15°
1007.7 hPa 20.6 mm 7.2°
6
30%
19:00
14°
1008.2 hPa 20.7 mm 7.0°
5
19%
22:00
12°
1009.7 hPa 20.7 mm 6.8°
5
10%
 04:29     21:48    Daglengte: 17:19 Vrijdag 21 Jun
01:00
10°
Voelt als: 7.8°
1011.1 hPa 20.7 mm 6.4°
4
0%
04:00
10°
1012.2 hPa 20.7 mm 7.0°
5
1%
07:00
11°
1013.2 hPa 20.7 mm 7.5°
5
3%
10:00
13°
1014.6 hPa 20.7 mm 6.7°
6
20%
13:00
15°
1015.9 hPa 21.0 mm 5.3°
6
38%
16:00
15°
1017.2 hPa 21.7 mm 5.8°
6
26%
19:00
14°
1018.5 hPa 21.9 mm 6.1°
6
15%
22:00
12°
1020.2 hPa 21.9 mm 6.5°
5
8%
 04:29     21:48    Daglengte: 17:19 Zaterdag 22 Jun
01:00
10°
Voelt als: 7.9°
1021.8 hPa 21.9 mm 6.3°
4
0%
04:00
10°
1022.8 hPa 21.9 mm 6.7°
4
9%
07:00
10°
1023.9 hPa 21.9 mm 7.3°
3
17%
10:00
12°
1024.6 hPa 21.9 mm 7.5°
4
42%
13:00
13°
1025.3 hPa 21.9 mm 7.7°
4
67%
16:00
13°
1025.1 hPa 21.9 mm 7.6°
4
73%
19:00
13°
1025.0 hPa 22.0 mm 7.7°
5
78%
22:00
12°
1025.5 hPa 22.0 mm 8.4°
3
77%
 04:29     21:48    Daglengte: 17:19 Zondag 23 Jun
01:00
11°
1026.0 hPa 22.0 mm 8.8°
2
76%
04:00
11°
1025.8 hPa 22.0 mm 8.7°
1
79%
07:00
12°
1025.7 hPa 22.0 mm 8.6°
1
82%
10:00
13°
1025.7 hPa 22.1 mm 9.0°
2
85%
13:00
14°
1025.8 hPa 22.2 mm 9.0°
3
87%
16:00
14°
1025.4 hPa   9.6°
3
89%
19:00
13°
1025.0 hPa 44.4 mm 10.3°
3
91%
 04:30     21:48    Daglengte: 17:18 Maandag 24 Jun
01:00
11°
1025.2 hPa 44.6 mm 10.1°
2
90%
07:00
12°
1025.4 hPa 55.0 mm 9.1°
5
54%
13:00
14°
1026.1 hPa 61.4 mm 9.1°
6
42%
19:00
13°
1026.6 hPa 65.1 mm 9.6°
5
19%
 04:30     21:48    Daglengte: 17:18 Dinsdag 25 Jun
01:00
11°
1027.2 hPa 66.9 mm 9.6°
3
13%
07:00
12°
1027.1 hPa 67.4 mm 9.4°
4
83%
13:00
15°
1027.6 hPa 70.5 mm 10.1°
3
0%
19:00
14°
1026.8 hPa 79.2 mm 9.7°
2
1%
 04:31     21:48    Daglengte: 17:17 Woensdag 26 Jun
01:00
11°
1027.2 hPa 80.6 mm 9.2°
2
34%
07:00
12°
1011.1 hPa 80.9 mm 7.5°
6
1%
13:00
12°
1023.0 hPa 0.2 mm 8.8°
5
52%
19:00
13°
1022.3 hPa 0.3 mm 9.4°
3
42%
 04:31     21:48    Daglengte: 17:17 Donderdag 27 Jun
01:00
11°
1022.0 hPa 0.4 mm 8.0°
1
52%
07:00
11°
1020.4 hPa 0.3 mm 8.5°
2
46%
13:00
14°
1019.5 hPa 0.5 mm 9.9°
1
43%
19:00
14°
1018.0 hPa 0.6 mm 10.3°
0
51%
 04:32     21:47    Daglengte: 17:15 Vrijdag 28 Jun
01:00
12°
1017.1 hPa 0.8 mm 9.2°
1
52%
07:00
12°
1015.6 hPa 0.4 mm 9.5°
3
48%
13:00
14°
1015.2 hPa 0.4 mm 10.6°
3
41%
19:00
14°
1014.3 hPa 0.7 mm 10.7°
2
46%
 04:33     21:47    Daglengte: 17:14 Zaterdag 29 Jun
01:00
12°
1014.2 hPa 0.2 mm 9.7°
3
42%
07:00
12°
1013.4 hPa 0.5 mm 9.9°
3
43%
13:00
15°
1013.1 hPa 0.4 mm 11.0°
2
43%
19:00
15°
1012.4 hPa 0.9 mm 11.5°
1
47%
 04:33     21:47    Daglengte: 17:14 Zondag 30 Jun
01:00
12°
1012.3 hPa 0.7 mm 10.2°
2
50%
07:00
12°
1011.2 hPa 1.0 mm 9.9°
2
55%
13:00
14°
1010.8 hPa 1.3 mm 11.1°
1
56%
19:00
14°
1010.4 hPa 1.9 mm 11.4°
1
58%
 04:34     21:46    Daglengte: 17:12 Maandag 01 Jul
01:00
12°
1010.9 hPa 1.6 mm 10.0°
3
53%
07:00
12°
1010.7 hPa 1.4 mm 9.7°
3
41%
13:00
14°
1011.5 hPa 1.0 mm 10.7°
2
45%
  CAPE Lifted Index Hail Supercell Tornado SRH 3km CL BTM PRES CL TOP PRES Swiss DWD icon SMHI TS
 04:28     21:46    Daglengte: 17:18 Vandaag
19:00 0 J/kg 2.8 K 0 % 0 % 0 % 0 m²/s² 0 0 4.78 1
20:00 0 J/kg 3.3 K 0 % 0 % 0 % 0 m²/s² 0 0 3.93 3
21:00 0 J/kg 2.3 K 0 % 0 % 0 % 0 m²/s² 0 0 2.81 3
22:00 0 J/kg 1.6 K 0 % 0 % 0 % 0 m²/s² 0 0 1.96 3
23:00 12 J/kg 1.6 K 0 % 0 % 0 % 0 m²/s² 0 0 2.14 2
 04:28     21:46    Daglengte: 17:18 Morgen
00:00 0 J/kg 1.7 K 0 % 0 % 0 % 0 m²/s² 0 0 3.56 3
01:00 0 J/kg 2.2 K 0 % 0 % 0 % 0 m²/s² 0 0 4.9 2
02:00 0 J/kg 2.6 K 0 % 0 % 0 % 0 m²/s² 0 0 5.06 3
03:00 0 J/kg 2.9 K 0 % 0 % 0 % 0 m²/s² 0 0 3.8 3
04:00 0 J/kg 3.2 K 0 % 0 % 0 % 0 m²/s² 0 0 4.1 3
05:00 0 J/kg 3.4 K 0 % 0 % 0 % 0 m²/s² 0 0 6.58 3
06:00 3 J/kg 3.5 K 0 % 0 % 0 % 0 m²/s² 0 0 7.52 3
07:00 23 J/kg 3.2 K 0 % 0 % 0 % 0 m²/s² 0 0 6.92 3
08:00 24 J/kg 3.3 K 0 % 0 % 0 % 0 m²/s² 0 0 6.57 3
09:00 15 J/kg 3.9 K 0 % 0 % 0 % 0 m²/s² 0 0 7.14 3
10:00 17 J/kg 4.0 K 0 % 0 % 0 % 0 m²/s² 0 0 7.51 3
11:00 39 J/kg 3.4 K 0 % 0 % 0 % 0 m²/s² 0 0 6.85 3
12:00 39 J/kg 3.3 K 0 % 0 % 0 % 0 m²/s² 0 0 6.63 3
13:00 38 J/kg 3.2 K 0 % 0 % 0 % 0 m²/s² 0 0 6.83 2
14:00 76 J/kg 2.3 K 0 % 0 % 0 % 0 m²/s² 0 0 6.41 3
15:00 57 J/kg 2.5 K 0 % 0 % 0 % 0 m²/s² 0 0 7.96 3
16:00 36 J/kg 2.7 K 0 % 0 % 0 % 0 m²/s² 0 0 8.64 2
17:00 28 J/kg 2.7 K 0 % 0 % 0 % 0 m²/s² 0 0 8.16 2
18:00 0 J/kg 3.0 K 0 % 0 % 0 % 0 m²/s² 0 0 8.04 3
19:00 0 J/kg 3.1 K 0 % 0 % 0 % 0 m²/s² 0 0 7.87 3
20:00 0 J/kg 3.9 K 0 % 0 % 0 % 0 m²/s² 0 0 8.79 0
21:00 0 J/kg 4.2 K 0 % 0 % 0 % 0 m²/s² 0 0 8.85 1
22:00 0 J/kg 4.9 K 0 % 0 % 0 % 0 m²/s² 0 0 9.43 0
23:00 0 J/kg 4.2 K 0 % 0 % 0 % 0 m²/s² 0 0 8.49 0
 04:28     21:47    Daglengte: 17:19 Dinsdag 18 Jun
00:00 0 J/kg 3.7 K 0 % 0 % 0 % 0 m²/s² 0 0 7.69 1
01:00 0 J/kg 3.5 K 0 % 0 % 0 % 0 m²/s² 0 0 7.58 2
02:00 0 J/kg 3.4 K 0 % 0 % 0 % 0 m²/s² 0 0 8.29 3
03:00 0 J/kg 3.3 K 0 % 0 % 0 % 0 m²/s² 0 0 8.76 3
04:00 0 J/kg 3.4 K 0 % 0 % 0 % 0 m²/s² 0 0 8.86 3
05:00 0 J/kg 3.9 K 0 % 0 % 0 % 0 m²/s² 0 0 9.69 2
06:00 0 J/kg 4.3 K 0 % 0 % 0 % 0 m²/s² 0 0 9.94 2
07:00 0 J/kg 4.7 K 0 % 0 % 0 % 0 m²/s² 0 0 9.62 2
08:00 0 J/kg 4.1 K 0 % 0 % 0 % 0 m²/s² 0 0 8.33 1
09:00 19 J/kg 3.6 K 0 % 0 % 0 % 0 m²/s² 0 0 6.96 0
10:00 13 J/kg 4.2 K 0 % 0 % 0 % 0 m²/s² 0 0 6.54 2
11:00 15 J/kg 4.0 K 0 % 0 % 0 % 0 m²/s² 0 0 5.95 1
12:00 14 J/kg 4.3 K 0 % 0 % 0 % 0 m²/s² 0 0 6.01 2
13:00 12 J/kg 4.9 K 0 % 0 % 0 % 0 m²/s² 0 0 6.34 0
14:00 1 J/kg 5.8 K 0 % 0 % 0 % 0 m²/s² 0 0 6.97 0
15:00 0 J/kg 6.2 K 0 % 0 % 0 % 0 m²/s² 0 0 7.22 2
16:00 0 J/kg 6.6 K 0 % 0 % 0 % 0 m²/s² 0 0 7.68 3
17:00 0 J/kg 6.9 K 0 % 0 % 0 % 0 m²/s² 0 0 7.83 3
18:00 0 J/kg 7.1 K 0 % 0 % 0 % 0 m²/s² 0 0 8.33 3
19:00 0 J/kg 7.1 K 0 % 0 % 0 % 0 m²/s² 0 0 8.6 3
20:00 0 J/kg 6.5 K 0 % 0 % 0 % 0 m²/s² 0 0 8 3
21:00 0 J/kg 4.7 K 0 % 0 % 0 % 0 m²/s² 0 0 6.14 3
22:00 0 J/kg 4.7 K 0 % 0 % 0 % 0 m²/s² 0 0 6.08 3
23:00 0 J/kg 4.7 K 0 % 0 % 0 % 0 m²/s² 0 0 5.96 3
 04:28     21:47    Daglengte: 17:19 Woensdag 19 Jun
00:00 0 J/kg 4.2 K 0 % 0 % 0 % 0 m²/s² 0 0 5.31 61
01:00 0 J/kg 4.1 K 0 % 0 % 0 % 0 m²/s² 0 0 4.94 61
02:00 0 J/kg 4.6 K 0 % 0 % 0 % 0 m²/s² 0 0 5.17 61
03:00 0 J/kg 5.1 K 0 % 0 % 0 % 0 m²/s² 0 0 5.58 61
04:00 0 J/kg 4.8 K 0 % 0 % 0 % 0 m²/s² 0 0 5.04 61
05:00 0 J/kg 4.0 K 0 % 0 % 0 % 0 m²/s² 0 0 4.21 61
06:00 0 J/kg 4.1 K 0 % 0 % 0 % 0 m²/s² 0 0 4.28 63
07:00 0 J/kg 3.9 K 0 % 0 % 0 % 0 m²/s² 0 0 3.99 61
08:00 0 J/kg 4.1 K 0 % 0 % 0 % 0 m²/s² 0 0 4.28 61
09:00 0 J/kg 4.0 K 0 % 0 % 0 % 0 m²/s² 0 0 4.18 61
10:00 1 J/kg 3.7 K 0 % 0 % 0 % 0 m²/s² 0 0 3.82 61
11:00 2 J/kg 4.1 K 0 % 0 % 0 % 0 m²/s² 0 0 4.19 61
12:00 6 J/kg 4.4 K 0 % 0 % 0 % 0 m²/s² 0 0 4.49 61
13:00 8 J/kg 4.5 K 0 % 0 % 0 % 0 m²/s² 0 0 4.62 61
14:00 7 J/kg 4.8 K 0 % 0 % 0 % 0 m²/s² 0 0 4.92 55
15:00 5 J/kg 4.9 K 0 % 0 % 0 % 0 m²/s² 0 0 5.02 61
16:00 4 J/kg 5.5 K 0 % 0 % 0 % 0 m²/s² 0 0 5.68 61
17:00 0 J/kg 6.4 K 0 % 0 % 0 % 0 m²/s² 0 0 6.91 61
18:00 0 J/kg 5.8 K 0 % 0 % 0 % 0 m²/s² 0 0 6.34 61
Temp Baro Wind Neerslag
  EWN Forecast EWN WRFDA DWD ICON FMI HIRLAM MET Norway GFS
 04:28     21:46    Daglengte: 17:18 Vandaag
19:00 15.6° 1010.8 hPa 5.8 m/s 0.0 mm 16.9° 1009.9 hPa 7.1 m/s 6.1 mm 16.4° 1010.9 hPa 4.1 m/s -1.3 mm 15.6° 1010.7 hPa 6.2 m/s 0.0 mm 15.0° 1010.8 hPa 5.9 m/s 0.4 mm 15.8° 1010.8 hPa 6.5 m/s
22:00 13.3° 1011.0 hPa 4.1 m/s 0.0 mm 15.2° 1010.6 hPa 4.1 m/s 9.1 mm 13.7° 1011.5 hPa 4.1 m/s 0.1 mm 13.5° 1011.0 hPa 2.8 m/s 0.0 mm 12.6° 1010.6 hPa 4.8 m/s 1.1 mm 13.3° 1011.4 hPa 4.6 m/s
 04:28     21:46    Daglengte: 17:18 Morgen
01:00 13.5° 1009.9 hPa 7.7 m/s 0.0 mm 13.7° 1009.7 hPa 7.0 m/s 9.2 mm 12.8° 1011.2 hPa 5.8 m/s 0.0 mm 13.9° 1009.7 hPa 7.8 m/s 0.0 mm 13.6° 1009.6 hPa 8.1 m/s 0.0 mm 13.1° 1011.1 hPa 6.9 m/s
04:00 12.7° 1010.1 hPa 6.4 m/s 0.0 mm 13.0° 1009.3 hPa 6.4 m/s 9.2 mm 12.5° 1010.9 hPa 6.2 m/s 0.0 mm 13.8° 1009.2 hPa 6.2 m/s 0.0 mm 12.4° 1010.2 hPa 6.4 m/s 0.0 mm 12.6° 1010.7 hPa 6.6 m/s
07:00 13.1° 1010.9 hPa 5.7 m/s 0.0 mm 13.9° 1009.5 hPa 6.1 m/s 9.2 mm 13.0° 1011.1 hPa 5.1 m/s 0.0 mm 14.0° 1010.1 hPa 6.9 m/s 0.0 mm 13.0° 1011.1 hPa 5.6 m/s 0.0 mm 13.1° 1011.4 hPa 5.8 m/s
10:00 15.8° 1011.4 hPa 7.2 m/s 0.0 mm 16.2° 1010.5 hPa 7.1 m/s 9.2 mm 15.9° 1011.6 hPa 6.5 m/s 0.0 mm 15.9° 1011.5 hPa 7.6 m/s 0.0 mm 15.8° 1011.0 hPa 7.4 m/s 0.0 mm 15.1° 1012.0 hPa 6.7 m/s
13:00 17.2° 1011.4 hPa 7.0 m/s 0.0 mm 18.0° 1010.0 hPa 8.1 m/s 9.2 mm 17.9° 1011.4 hPa 7.1 m/s 0.0 mm 17.3° 1012.3 hPa 7.4 m/s 0.0 mm 17.0° 1011.2 hPa 6.8 m/s 0.0 mm 16.6° 1011.8 hPa 7.5 m/s
16:00 17.8° 1011.5 hPa 7.6 m/s 0.0 mm 18.4° 1010.2 hPa 8.6 m/s 9.2 mm 18.1° 1011.7 hPa 8.0 m/s 0.0 mm 18.2° 1012.2 hPa 7.1 m/s 0.0 mm 17.4° 1010.9 hPa 7.5 m/s 0.0 mm 17.0° 1011.2 hPa 7.8 m/s
19:00 16.5° 1011.6 hPa 6.6 m/s 0.0 mm 17.1° 1010.0 hPa 8.1 m/s 9.2 mm 16.8° 1011.6 hPa 6.5 m/s 0.0 mm 17.3° 1012.6 hPa 6.0 m/s 0.0 mm 16.0° 1011.2 hPa 6.5 m/s 0.0 mm 15.6° 1010.9 hPa 7.2 m/s
22:00 13.9° 1012.5 hPa 5.4 m/s 0.0 mm 14.0° 1011.2 hPa 6.6 m/s 9.2 mm 13.8° 1012.7 hPa 4.2 m/s 0.0 mm 15.4° 1013.4 hPa 3.8 m/s 0.0 mm 13.3° 1012.4 hPa 5.6 m/s 0.0 mm 12.8° 1012.3 hPa 6.2 m/s
 04:28     21:47    Daglengte: 17:19 Dinsdag 18 Jun
01:00 12.2° 1012.7 hPa 4.7 m/s 0.0 mm 11.8° 1011.7 hPa 5.1 m/s 9.2 mm 12.2° 1012.9 hPa 4.4 m/s 0.0 mm 12.9° 1013.1 hPa 1.6 m/s 0.0 mm 11.8° 1012.7 hPa 5.0 m/s 0.0 mm 11.7° 1012.7 hPa 4.6 m/s
04:00 11.4° 1012.4 hPa 4.2 m/s 0.0 mm 10.7° 1011.4 hPa 4.0 m/s 9.2 mm 11.7° 1012.5 hPa 4.1 m/s 0.0 mm 12.2° 1012.9 hPa 4.0 m/s 0.0 mm 10.3° 1012.5 hPa 4.0 m/s 0.0 mm 10.7° 1012.7 hPa 4.8 m/s
07:00 12.2° 1012.4 hPa 4.4 m/s 0.0 mm 12.9° 1010.9 hPa 3.4 m/s 9.2 mm 12.2° 1012.5 hPa 4.3 m/s 0.0 mm 12.8° 1012.4 hPa 5.5 m/s 0.0 mm 12.0° 1012.7 hPa 4.3 m/s 0.0 mm 12.0° 1012.5 hPa 4.8 m/s
10:00 15.9° 1012.3 hPa 5.4 m/s 0.0 mm 16.5° 1010.9 hPa 5.2 m/s 9.2 mm 16.5° 1012.3 hPa 5.2 m/s 0.0 mm 16.3° 1012.5 hPa 4.8 m/s 0.0 mm 15.5° 1012.5 hPa 5.6 m/s 0.0 mm 15.1° 1012.7 hPa 5.5 m/s
13:00 17.6° 1011.9 hPa 5.5 m/s 0.0 mm 18.8° 1010.6 hPa 6.0 m/s 9.2 mm 18.6° 1012.1 hPa 5.7 m/s 0.0 mm 17.8° 1012.0 hPa 4.8 m/s 0.0 mm 17.1° 1012.1 hPa 5.2 m/s 0.0 mm 16.8° 1012.4 hPa 5.6 m/s
16:00 18.0° 1011.4 hPa 5.3 m/s 0.0 mm 19.2° 1010.0 hPa 4.9 m/s 9.2 mm 18.9° 1011.7 hPa 5.0 m/s 0.0 mm 17.4° 1011.5 hPa 5.4 m/s 0.0 mm 17.1° 1011.8 hPa 5.5 m/s
19:00 16.9° 1010.9 hPa 3.5 m/s 0.0 mm 18.6° 1009.1 hPa 3.2 m/s 9.2 mm 17.8° 1011.3 hPa 2.9 m/s 0.0 mm 15.8° 1011.0 hPa 3.4 m/s 0.0 mm 16.2° 1011.3 hPa 4.0 m/s
22:00 14.1° 1011.0 hPa 2.4 m/s 0.0 mm 17.4° 1009.2 hPa 0.6 m/s 9.2 mm 15.2° 1011.4 hPa 1.1 m/s 0.0 mm 13.2° 1011.1 hPa 2.7 m/s 0.0 mm 14.4° 1011.8 hPa 1.7 m/s
 04:28     21:47    Daglengte: 17:19 Woensdag 19 Jun
01:00 12.5° 1010.4 hPa 1.6 m/s 0.0 mm 14.8° 1008.0 hPa 2.2 m/s 9.2 mm 13.4° 1010.7 hPa 1.1 m/s 0.4 mm 11.8° 1010.5 hPa 1.6 m/s 0.0 mm 13.1° 1010.5 hPa 2.9 m/s
04:00 11.9° 1009.1 hPa 1.6 m/s 0.7 mm 13.7° 1006.9 hPa 2.9 m/s 9.2 mm 12.1° 1009.2 hPa 0.6 m/s 1.3 mm 11.2° 1009.5 hPa 1.7 m/s 0.0 mm 12.0° 1009.3 hPa 2.4 m/s
07:00 11.5° 1008.2 hPa 2.3 m/s 4.1 mm 12.1° 1005.9 hPa 2.8 m/s 10.0 mm 11.6° 1008.0 hPa 2.7 m/s 5.7 mm 11.4° 1008.8 hPa 2.4 m/s 1.7 mm 12.0° 1008.2 hPa 2.0 m/s
10:00 12.2° 1007.6 hPa 1.7 m/s 6.7 mm 12.2° 1005.5 hPa 2.7 m/s 18.2 mm 12.1° 1006.2 hPa 3.3 m/s 5.2 mm 12.9° 1008.2 hPa 1.5 m/s 11.9° 1007.7 hPa 4.2 m/s
13:00 12.7° 1006.6 hPa 1.2 m/s 9.7 mm 12.5° 1004.4 hPa 4.4 m/s 35.4 mm 12.3° 1004.4 hPa 3.6 m/s 5.4 mm 14.3° 1007.7 hPa 0.6 m/s 12.0° 1006.2 hPa 3.6 m/s
16:00 13.9° 1005.4 hPa 2.6 m/s 18.1 mm 13.2° 1003.9 hPa 4.2 m/s 50.9 mm 12.2° 1003.3 hPa 4.0 m/s 1.6 mm 14.8° 1007.0 hPa 1.2 m/s 12.0° 1005.1 hPa 3.4 m/s
19:00 14.5° 1004.8 hPa 2.2 m/s 18.5 mm 14.3° 1003.3 hPa 2.0 m/s 54.1 mm 12.1° 1003.4 hPa 3.8 m/s 0.7 mm 15.3° 1006.3 hPa 1.9 m/s 12.0° 1004.6 hPa 3.0 m/s
22:00 12.6° 1006.6 hPa 3.3 m/s 19.5 mm 12.6° 1006.7 hPa 3.4 m/s 11.8° 1005.4 hPa 2.3 m/s 19.5 mm
 04:29     21:47    Daglengte: 17:18 Donderdag 20 Jun
01:00 11.3° 1006.7 hPa 4.1 m/s 19.5 mm 11.3° 1006.9 hPa 4.2 m/s 11.4° 1005.0 hPa 3.5 m/s 19.5 mm
04:00 11.6° 1006.6 hPa 4.3 m/s 19.5 mm 11.8° 1006.7 hPa 4.3 m/s 10.5° 1005.4 hPa 3.7 m/s 19.5 mm
07:00 12.2° 1006.5 hPa 4.4 m/s 19.5 mm 12.2° 1006.5 hPa 4.5 m/s 11.7° 1006.0 hPa 3.7 m/s 19.5 mm
10:00 13.8° 1006.8 hPa 5.2 m/s 19.6 mm 13.8° 1006.9 hPa 5.3 m/s 14.1° 1006.8 hPa 4.6 m/s 19.6 mm
13:00 15.3° 1007.2 hPa 6.0 m/s 20.0 mm 15.3° 1007.2 hPa 6.1 m/s 15.3° 1007.2 hPa 5.4 m/s 20.0 mm
16:00 14.8° 1007.7 hPa 5.6 m/s 20.6 mm 14.7° 1007.8 hPa 5.5 m/s 15.7° 1007.4 hPa 5.9 m/s 20.6 mm
19:00 14.1° 1008.2 hPa 5.0 m/s 20.7 mm 14.1° 1008.3 hPa 5.0 m/s 14.6° 1007.7 hPa 5.2 m/s 20.7 mm
22:00 12.0° 1009.7 hPa 4.7 m/s 20.7 mm 12.0° 1009.8 hPa 4.7 m/s 12.0° 1008.9 hPa 4.5 m/s 20.7 mm
 04:29     21:48    Daglengte: 17:19 Vrijdag 21 Jun
01:00 10.0° 1011.1 hPa 4.4 m/s 20.7 mm 9.9° 1011.3 hPa 4.4 m/s 10.9° 1009.4 hPa 4.2 m/s 20.7 mm
04:00 10.5° 1012.2 hPa 4.6 m/s 20.7 mm 10.5° 1012.3 hPa 4.7 m/s 10.4° 1010.2 hPa 3.9 m/s 20.7 mm
07:00 11.1° 1013.2 hPa 5.0 m/s 20.7 mm 11.1° 1013.4 hPa 5.0 m/s 11.1° 1011.0 hPa 5.0 m/s 20.7 mm
10:00 12.9° 1014.6 hPa 5.6 m/s 20.7 mm 12.9° 1014.8 hPa 5.7 m/s 13.5° 1012.3 hPa 5.3 m/s 20.7 mm
13:00 14.7° 1015.9 hPa 6.1 m/s 21.0 mm 14.7° 1016.2 hPa 6.3 m/s 15.2° 1013.1 hPa 4.4 m/s 21.0 mm
16:00 14.5° 1017.2 hPa 6.0 m/s 21.7 mm 14.4° 1017.5 hPa 6.0 m/s 15.6° 1014.3 hPa 6.0 m/s 21.7 mm
19:00 14.1° 1018.5 hPa 5.7 m/s 21.9 mm 14.1° 1018.8 hPa 5.7 m/s 14.7° 1015.5 hPa 5.9 m/s 21.9 mm
22:00 11.9° 1020.2 hPa 4.8 m/s 21.9 mm 11.9° 1020.5 hPa 4.8 m/s 11.9° 1017.5 hPa 4.9 m/s 21.9 mm
 04:29     21:48    Daglengte: 17:19 Zaterdag 22 Jun
01:00 9.9° 1021.8 hPa 3.9 m/s 21.9 mm 9.8° 1022.1 hPa 3.9 m/s 10.5° 1018.5 hPa 4.1 m/s 21.9 mm
04:00 10.0° 1022.8 hPa 3.7 m/s 21.9 mm 10.1° 1023.2 hPa 3.8 m/s 9.6° 1019.0 hPa 3.3 m/s 21.9 mm
07:00 10.3° 1023.9 hPa 3.5 m/s 21.9 mm 10.3° 1024.2 hPa 3.6 m/s 10.7° 1020.0 hPa 2.1 m/s 21.9 mm
10:00 11.9° 1024.6 hPa 3.6 m/s 21.9 mm 11.7° 1025.0 hPa 3.8 m/s 13.9° 1020.5 hPa 1.1 m/s 21.9 mm
13:00 13.2° 1025.3 hPa 4.1 m/s 21.9 mm 13.1° 1025.7 hPa 4.1 m/s 14.1° 1020.6 hPa 4.3 m/s 21.9 mm
16:00 13.1° 1025.1 hPa 4.4 m/s 21.9 mm 13.0° 1025.6 hPa 4.3 m/s 14.2° 1020.1 hPa 5.4 m/s 21.9 mm
19:00 13.0° 1025.0 hPa 4.6 m/s 22.0 mm 12.9° 1025.5 hPa 4.5 m/s 13.8° 1019.9 hPa 5.8 m/s 22.0 mm
22:00 12.1° 1025.5 hPa 3.3 m/s 22.0 mm 12.1° 1026.0 hPa 3.1 m/s 12.3° 1020.6 hPa 4.5 m/s 22.0 mm
 04:29     21:48    Daglengte: 17:19 Zondag 23 Jun
01:00 11.3° 1026.0 hPa 1.8 m/s 22.0 mm 11.3° 1026.5 hPa 1.8 m/s 11.2° 1020.2 hPa 2.4 m/s 22.0 mm
04:00 11.5° 1025.8 hPa 1.4 m/s 22.0 mm 11.6° 1026.4 hPa 1.4 m/s 10.7° 1019.5 hPa 1.8 m/s 22.0 mm
07:00 11.8° 1025.7 hPa 1.1 m/s 22.0 mm 11.8° 1026.3 hPa 0.9 m/s 11.8° 1019.0 hPa 2.8 m/s 22.0 mm
10:00 12.9° 1025.7 hPa 2.1 m/s 22.1 mm 12.9° 1026.4 hPa 2.0 m/s 12.7° 1018.4 hPa 3.5 m/s 22.1 mm
13:00 14.1° 1025.8 hPa 3.2 m/s 22.2 mm 14.1° 1026.5 hPa 3.0 m/s 14.5° 1017.9 hPa 5.6 m/s 22.2 mm
16:00 13.7° 1025.4 hPa 3.3 m/s 22.2 mm 13.6° 1026.2 hPa 3.0 m/s 14.4° 1016.2 hPa 5.9 m/s 22.2 mm
19:00 13.2° 1025.0 hPa 3.3 m/s 22.2 mm 13.2° 1025.9 hPa 3.1 m/s 13.8° 1014.9 hPa 5.6 m/s 22.2 mm
 04:30     21:48    Daglengte: 17:18 Maandag 24 Jun
01:00 11.4° 1025.2 hPa 2.2 m/s 22.4 mm 11.3° 1026.4 hPa 2.0 m/s 12.5° 1012.4 hPa 4.4 m/s 22.4 mm
07:00 12.1° 1025.4 hPa 5.0 m/s 28.4 mm 12.1° 1027.0 hPa 5.0 m/s 12.6° 1008.2 hPa 5.1 m/s 28.4 mm
13:00 13.7° 1026.1 hPa 5.6 m/s 31.7 mm 13.7° 1028.0 hPa 5.6 m/s 13.3° 1004.6 hPa 5.1 m/s 31.7 mm
19:00 13.1° 1026.6 hPa 5.3 m/s 33.0 mm 12.8° 1028.7 hPa 5.2 m/s 16.5° 1002.9 hPa 6.0 m/s 33.0 mm
 04:30     21:48    Daglengte: 17:18 Dinsdag 25 Jun
01:00 10.6° 1027.2 hPa 3.3 m/s 33.5 mm 10.2° 1029.5 hPa 3.1 m/s 14.8° 1001.4 hPa 5.3 m/s 33.5 mm
07:00 11.5° 1027.1 hPa 3.6 m/s 33.7 mm 11.3° 1029.5 hPa 3.5 m/s 14.2° 1000.5 hPa 4.4 m/s 33.7 mm
13:00 15.4° 1027.6 hPa 3.1 m/s 36.2 mm 15.2° 1030.0 hPa 3.1 m/s 17.6° 1001.8 hPa 3.6 m/s 36.2 mm
19:00 14.1° 1026.8 hPa 2.3 m/s 40.2 mm 14.2° 1029.0 hPa 1.9 m/s 13.4° 1003.2 hPa 6.4 m/s 40.2 mm
 04:31     21:48    Daglengte: 17:17 Woensdag 26 Jun
01:00 11.2° 1027.2 hPa 2.2 m/s 40.4 mm 11.1° 1029.1 hPa 2.1 m/s 12.5° 1006.6 hPa 3.8 m/s 40.4 mm
07:00 11.9° 1011.1 hPa 5.7 m/s 40.5 mm 11.9° 1011.1 hPa 5.7 m/s 40.5 mm
13:00 12.5° 1023.0 hPa 4.9 m/s 0.2 mm
19:00 12.7° 1022.3 hPa 3.2 m/s 0.3 mm
 04:31     21:48    Daglengte: 17:17 Donderdag 27 Jun
01:00 10.8° 1022.0 hPa 1.2 m/s 0.4 mm
07:00 11.1° 1020.4 hPa 1.9 m/s 0.3 mm
13:00 13.6° 1019.5 hPa 1.4 m/s 0.5 mm
19:00 13.6° 1018.0 hPa 0.1 m/s 0.6 mm
 04:32     21:47    Daglengte: 17:15 Vrijdag 28 Jun
01:00 11.5° 1017.1 hPa 1.5 m/s 0.8 mm
07:00 11.7° 1015.6 hPa 2.7 m/s 0.4 mm
13:00 14.2° 1015.2 hPa 2.5 m/s 0.4 mm
19:00 14.2° 1014.3 hPa 1.8 m/s 0.7 mm
 04:33     21:47    Daglengte: 17:14 Zaterdag 29 Jun
01:00 12.0° 1014.2 hPa 2.6 m/s 0.2 mm
07:00 12.1° 1013.4 hPa 2.7 m/s 0.5 mm
13:00 14.6° 1013.1 hPa 1.9 m/s 0.4 mm
19:00 14.7° 1012.4 hPa 0.7 m/s 0.9 mm
 04:33     21:47    Daglengte: 17:14 Zondag 30 Jun
01:00 12.3° 1012.3 hPa 2.2 m/s 0.7 mm
07:00 12.0° 1011.2 hPa 2.1 m/s 1.0 mm
13:00 14.3° 1010.8 hPa 1.2 m/s 1.3 mm
19:00 14.4° 1010.4 hPa 1.4 m/s 1.9 mm
 04:34     21:46    Daglengte: 17:12 Maandag 01 Jul
01:00 12.1° 1010.9 hPa 2.6 m/s 1.6 mm
07:00 11.8° 1010.7 hPa 2.8 m/s 1.4 mm
13:00 14.3° 1011.5 hPa 2.3 m/s 1.0 mm
FMI Hirlam - 7.5 km EWN WRFDA - 12 km DWD ICON - 7 km GFS - 25 km Basiskaart






























































Updatetijd (Europe/Amsterdam) Resolutie Lengte Stap
FMI Hirlam 19:00, 01:00, 07:00, 13:00 7.5 km 49h 1h
EWN WRFDA 16:15, 22:15, 04:15, 10:15 12 km 73h 1h
DWD ICON 18:00, 00:00, 06:00, 12:00 7 km 75h 1h
GFS 14:30, 20:30, 02:30, 08:30 25 km 237h 3h
30+ mm
25-30 mm
20-25 mm
15-20 mm
10-15 mm
6-10 mm
4-6 mm
2-4 mm
1-2 mm
0.5-1 mm
0.2-0.5 mm
0.1-0.2 mm
30+ mm
25-30 mm
20-25 mm
15-20 mm
10-15 mm
6-10 mm
4-6 mm
2-4 mm
1-2 mm
0.5-1 mm
0.2-0.5 mm
0.1-0.2 mm
Sneeuwval
Natte sneeuw
Hagel
Vorst
30+ mm
25-30 mm
20-25 mm
15-20 mm
10-15 mm
6-10 mm
4-6 mm
2-4 mm
1-2 mm
0.5-1 mm
0.2-0.5 mm
0.1-0.2 mm
Sneeuwval
Natte sneeuw
Hagel
Vorst
Onweer
50 mm
40 mm
30 mm
26 mm
22 mm
18 mm
14 mm
10 mm
9 mm
8 mm
7 mm
6 mm
5 mm
4.5 mm
4 mm
3.5 mm
3 mm
2.5 mm
2 mm
1.5 mm
1 mm
0.8 mm
0.6 mm
0.4 mm
0.2 mm
0.05 mm
35°
30°
25°
20°
15°
10°
-5°
-10°
-15°
-20°
-25°
-30°
-35°
33> m/s
29 m/s
25 m/s
21 m/s
17 m/s
14 m/s
11 m/s
8 m/s
5 m/s
3 m/s
0 m/s
2600 J/kg
2400 J/kg
2200 J/kg
2000 J/kg
1800 J/kg
1600 J/kg
1400 J/kg
1200 J/kg
1000 J/kg
800 J/kg
600 J/kg
400 J/kg
200 J/kg
70 dBZ
65 dBZ
60 dBZ
55 dBZ
50 dBZ
45 dBZ
40 dBZ
35 dBZ
30 dBZ
25 dBZ
20 dBZ
15 dBZ
10 dBZ
5 dBZ
-1 K
-2 K
-3 K
-4 K
-5 K
-6 K
-7 K
-8 K
-9 K
950 m²/s²
900 m²/s²
850 m²/s²
800 m²/s²
750 m²/s²
700 m²/s²
650 m²/s²
600 m²/s²
550 m²/s²
500 m²/s²
450 m²/s²
400 m²/s²
350 m²/s²
300 m²/s²
250 m²/s²
200 m²/s²
150 m²/s²
100 m²/s²
46 m/s
44 m/s
42 m/s
40 m/s
38 m/s
36 m/s
34 m/s
32 m/s
30 m/s
28 m/s
26 m/s
24 m/s
22 m/s
20 m/s
16 m/s
12 m/s
8 m/s
4 m/s
30 m/s
28 m/s
26 m/s
24 m/s
22 m/s
20 m/s
18 m/s
16 m/s
14 m/s
12 m/s
10 m/s
8 m/s
6 m/s
4 m/s
2 m/s
3.0
2.8
2.6
2.4
2.2
2.0
1.8
1.6
1.4
1.2
1.0
0.8
0.6
0.4
0.2
15
14
13
12
11
10
9
8
7
6
5
4
3
2
1
90%
80%
70%
60%
50%
40%
30%
20%
10%
42
40
38
36
34
32
30
28
26
24
22
20
18
16
14
12
90+ cm
80-90 cm
70-80 cm
60-70 cm
50-60 cm
40-50 cm
30-40 cm
20-30 cm
10-20 cm
1-10 cm
Sneeuwval
Natte sneeuw
Regen
>120 mm
115 mm
110 mm
105 mm
100 mm
95 mm
90 mm
85 mm
80 mm
75 mm
70 mm
65 mm
60 mm
55 mm
50 mm
45 mm
45 mm
40 mm
35 mm
30 mm
25 mm
20 mm
15 mm
10 mm
5 mm
0.1 mm
960 hPa
880 hPa
800 hPa
720 hPa
640 hPa
<